KC9EM-13 Weather Reports


Display with metric or nautical units.
time (UTC)temp
F
wind
direction
speed
MPH
gust
MPH
rain 1hr
in
rain 24hr
in
rain mn
in
humidity
%
barometer
mb
20260504044550 59 208 7.0 14.0 0.00 0.00 0.00 59 1010.8
20260504043048 59 160 8.0 17.0 0.00 0.00 0.00 59 1010.7
20260504041552 59 205 9.0 16.0 0.00 0.00 0.00 59 1011.0
20260504040057 59 233 9.0 16.0 0.00 0.00 0.00 58 1011.1
20260504034552 59 202 9.0 17.0 0.00 0.00 0.00 59 1011.1
20260504033052 60 163 9.0 14.0 0.00 0.00 0.00 58 1011.2
20260504031602 60 188 7.0 15.0 0.00 0.00 0.00 57 1011.6
20260504030051 60 173 8.0 15.0 0.00 0.00 0.00 56 1011.4
20260504024600 61 180 7.0 15.0 0.00 0.00 0.00 54 1011.5
20260504023047 61 187 7.0 15.0 0.00 0.00 0.00 55 1011.7
20260504021555 61 213 10.0 17.0 0.00 0.00 0.00 55 1011.4
20260504020054 60 194 11.0 18.0 0.00 0.00 0.00 55 1011.2
20260504014555 61 203 9.0 18.0 0.00 0.00 0.00 56 1011.3
20260504013101 61 175 8.0 14.0 0.00 0.00 0.00 54 1011.5
20260504011546 62 167 8.0 17.0 0.00 0.00 0.00 53 1011.5
20260504010046 62 207 7.0 15.0 0.00 0.00 0.00 52 1011.6
20260504004600 63 205 10.0 16.0 0.00 0.00 0.00 50 1011.8
20260504003046 63 205 9.0 17.0 0.00 0.00 0.00 49 1011.9
20260504001548 64 202 8.0 14.0 0.00 0.00 0.00 49 1012.2
20260504000050 64 217 7.0 16.0 0.00 0.00 0.00 49 1012.3
20260503234552 64 208 10.0 18.0 0.00 0.00 0.00 47 1012.3
20260503233047 65 182 9.0 24.0 0.00 0.00 0.00 47 1012.2
20260503231554 66 194 13.0 21.0 0.00 0.00 0.00 45 1012.0
20260503230051 65 207 12.0 26.0 0.00 0.00 0.00 46 1012.1
20260503224551 66 246 12.0 23.0 0.00 0.00 0.00 45 1012.2
20260503223052 66 207 15.0 23.0 0.00 0.00 0.00 45 1012.1
20260503221555 66 213 15.0 27.0 0.00 0.00 0.00 45 1012.1
20260503220048 66 202 15.0 25.0 0.00 0.00 0.00 45 1012.4
20260503214551 66 232 16.0 29.0 0.00 0.00 0.00 45 1012.5
20260503213049 66 212 15.0 33.0 0.00 0.00 0.00 45 1012.7
20260503211546 65 168 13.0 26.0 0.00 0.00 0.00 45 1013.0
20260503210051 67 165 12.0 26.0 0.00 0.00 0.00 45 1013.2
20260503204555 67 229 14.0 20.0 0.00 0.00 0.00 44 1013.7
20260503203055 66 227 10.0 25.0 0.00 0.00 0.00 47 1014.7
20260503201549 66 261 12.0 22.0 0.00 0.00 0.00 46 1015.0
20260503200050 66 231 13.0 24.0 0.00 0.00 0.00 45 1015.4
20260503194550 66 188 10.0 22.0 0.00 0.00 0.00 47 1015.2
20260503193058 65 201 13.0 23.0 0.00 0.00 0.00 45 1015.6
20260503191553 65 189 13.0 21.0 0.00 0.00 0.00 47 1016.1
20260503190052 64 192 12.0 30.0 0.00 0.00 0.00 47 1016.1
20260503184601 65 181 11.0 25.0 0.00 0.00 0.00 47 1016.6
20260503183047 64 235 9.0 23.0 0.00 0.00 0.00 48 1017.0
20260503181549 62 192 13.0 22.0 0.00 0.00 0.00 51 1017.3
20260503180051 63 214 13.0 24.0 0.00 0.00 0.00 48 1017.7
20260503174603 63 197 12.0 22.0 0.00 0.00 0.00 51 1017.9
20260503173048 63 218 10.0 22.0 0.00 0.00 0.00 51 1018.1
20260503171542 63 225 10.0 21.0 0.00 0.00 0.00 51 1018.4
20260503081549 43 208 1.0 4.0 0.00 0.01 0.00 70 1019.3
20260503071545 43 211 2.0 4.0 0.00 0.01 0.00 70 1019.3
20260503054545 44 199 1.0 3.0 0.00 0.01 0.00 67 1019.6
20260503053044 43 215 2.0 3.0 0.00 0.01 0.00 69 1019.8